CW0230 Weather Reports


Display with metric or nautical units.
time (UTC)temp
F
wind
direction
speed
MPH
gust
MPH
rain 1hr
in
rain 24hr
in
rain mn
in
humidity
%
barometer
mb
20210922155950 67 250 1.0 9.0 0.00 0.00 0.00 68 1026.4
20210922154947 67 174 3.0 12.0 0.00 0.00 0.00 67 1026.4
20210922153948 67 231 1.0 7.0 0.00 0.00 0.00 69 1026.4
20210922153447 67 208 0.0 6.0 0.00 0.00 0.00 68 1026.6
20210922152950 67 247 1.0 8.0 0.00 0.00 0.00 68 1026.7
20210922152446 67 214 3.0 8.0 0.00 0.00 0.00 68 1026.7
20210922151948 67 187 3.0 7.0 0.00 0.00 0.00 69 1026.8
20210922150447 67 235 1.0 6.0 0.00 0.00 0.00 70 1027.0
20210922145951 67 204 2.0 7.0 0.00 0.00 0.00 70 1027.0
20210922145446 67 214 1.0 7.0 0.00 0.00 0.00 70 1027.1
20210922144447 68 244 1.0 5.0 0.00 0.00 0.00 69 1027.1
20210922143448 68 234 0.0 6.0 0.00 0.00 0.00 71 1027.2
20210922142950 68 253 0.0 6.0 0.00 0.00 0.00 70 1027.2
20210922141949 68 254 1.0 6.0 0.00 0.00 0.00 70 1027.4
20210922141447 68 200 2.0 6.0 0.00 0.00 0.00 70 1027.4
20210922140949 68 231 1.0 6.0 0.00 0.00 0.00 69 1027.5
20210922140447 68 248 3.0 6.0 0.00 0.00 0.00 69 1027.5
20210922135950 68 281 2.0 3.0 0.00 0.00 0.00 69 1027.5
20210922135446 68 289 1.0 6.0 0.00 0.00 0.00 69 1027.6
20210922134446 68 235 0.0 6.0 0.00 0.00 0.00 70 1027.7
20210922133950 68 232 1.0 6.0 0.00 0.00 0.00 70 1027.7
20210922131446 68 226 1.0 3.0 0.00 0.00 0.00 70 1028.0
20210922130948 68 252 0.0 3.0 0.00 0.00 0.00 70 1028.0
20210922130447 68 214 0.0 3.0 0.00 0.00 0.00 69 1028.1
20210922125446 68 237 2.0 6.0 0.00 0.00 0.00 69 1028.3
20210922124947 68 246 1.0 6.0 0.00 0.00 0.00 69 1028.3
20210922124447 68 211 0.0 6.0 0.00 0.00 0.00 70 1028.2
20210922123448 67 202 0.0 0.0 0.00 0.00 0.00 70 1028.5
20210922122950 68 231 0.0 0.0 0.00 0.00 0.00 70 1028.5
20210922121447 68 291 0.0 0.0 0.00 0.00 0.00 72 1028.6
20210922120948 67 294 0.0 0.0 0.00 0.00 0.00 71 1028.6
20210922114446 67 292 0.0 0.0 0.00 0.00 0.00 73 1029.0
20210922113948 66 23 0.0 0.0 0.00 0.00 0.00 72 1029.0
20210922113447 66 315 0.0 0.0 0.00 0.00 0.00 72 1029.0
20210922112949 66 320 0.0 0.0 0.00 0.00 0.00 73 1029.0
20210922112445 66 295 0.0 0.0 0.00 0.00 0.00 74 1029.0
20210922110447 65 283 0.0 0.0 0.00 0.00 0.00 74 1029.1
20210922105949 65 225 0.0 0.0 0.00 0.00 0.00 74 1029.3
20210922104948 66 321 0.0 0.0 0.00 0.00 0.00 75 1029.4
20210922104446 66 304 0.0 0.0 0.00 0.00 0.00 74 1029.4
20210922101948 67 307 0.0 0.0 0.00 0.00 0.00 72 1029.5
20210922101447 67 221 0.0 0.0 0.00 0.00 0.00 71 1029.5
20210922100948 67 316 0.0 0.0 0.00 0.00 0.00 73 1029.5
20210922100447 66 200 0.0 0.0 0.00 0.00 0.00 77 1029.5
20210922095949 66 198 0.0 0.0 0.00 0.00 0.00 77 1029.6
20210922095446 65 188 0.0 0.0 0.00 0.00 0.00 78 1029.5
20210922094949 65 188 0.0 0.0 0.00 0.00 0.00 79 1029.5
20210922094447 64 188 0.0 0.0 0.00 0.00 0.00 80 1029.6
20210922092950 62 188 0.0 0.0 0.00 0.00 0.00 83 1029.7
20210922090447 60 188 0.0 0.0 0.00 0.00 0.00 86 1029.8
20210922085950 60 188 0.0 0.0 0.00 0.00 0.00 86 1029.7
20210922085447 59 188 0.0 0.0 0.00 0.00 0.00 88 1029.7
20210922084948 58 188 0.0 0.0 0.00 0.00 0.00 88 1029.7
20210922083447 57 336 0.0 0.0 0.00 0.00 0.00 93 1029.8
20210922082950 56 337 0.0 0.0 0.00 0.00 0.00 94 1029.8
20210922082447 55 337 0.0 0.0 0.00 0.00 0.00 95 1029.8
20210922080949 52 337 0.0 0.0 0.00 0.00 0.00 96 1029.8
20210922080447 51 337 0.0 0.0 0.00 0.00 0.00 95 1029.8
20210922075950 51 337 0.0 0.0 0.00 0.00 0.00 95 1029.9
20210922075446 51 337 0.0 0.0 0.00 0.00 0.00 95 1029.9
20210922074447 50 337 0.0 0.0 0.00 0.00 0.00 95 1029.9
20210922073948 50 337 0.0 0.0 0.00 0.00 0.00 95 1029.8
20210922073446 49 337 0.0 0.0 0.00 0.00 0.00 95 1029.8
20210922072950 49 337 0.0 0.0 0.00 0.00 0.00 95 1029.7
20210922071948 49 337 0.0 0.0 0.00 0.00 0.00 95 1029.6
20210922070947 49 337 0.0 0.0 0.00 0.00 0.00 95 1029.6
20210922070447 49 337 0.0 0.0 0.00 0.00 0.00 95 1029.6
20210922065949 48 337 0.0 0.0 0.00 0.00 0.00 95 1029.5
20210922065447 48 337 0.0 0.0 0.00 0.00 0.00 95 1029.6
20210922064947 48 337 0.0 0.0 0.00 0.00 0.00 95 1029.6
20210922063947 48 337 0.0 0.0 0.00 0.00 0.00 95 1029.4
20210922063446 47 337 0.0 0.0 0.00 0.00 0.00 95 1029.4
20210922062949 47 337 0.0 0.0 0.00 0.00 0.00 95 1029.3
20210922062446 47 337 0.0 0.0 0.00 0.00 0.00 95 1029.4
20210922060948 47 337 0.0 0.0 0.00 0.00 0.00 94 1029.4
20210922055948 47 337 0.0 0.0 0.00 0.00 0.00 94 1029.3
20210922055446 47 337 0.0 0.0 0.00 0.00 0.00 94 1029.4
20210922054947 47 337 0.0 0.0 0.00 0.00 0.00 94 1029.3
20210922054446 47 337 0.0 0.0 0.00 0.00 0.00 94 1029.3
20210922053947 47 337 0.0 0.0 0.00 0.00 0.00 94 1029.3
20210922053447 47 337 0.0 0.0 0.00 0.00 0.00 94 1029.2
20210922052445 47 337 0.0 0.0 0.00 0.00 0.00 94 1029.3
20210922051948 47 337 0.0 0.0 0.00 0.00 0.00 94 1029.3
20210922050948 47 337 0.0 0.0 0.00 0.00 0.00 94 1029.3
20210922050447 47 337 0.0 0.0 0.00 0.00 0.00 94 1029.3
20210922045949 47 337 0.0 0.0 0.00 0.00 0.00 94 1029.4
20210922045446 47 337 0.0 0.0 0.00 0.00 0.00 94 1029.4
20210922044947 48 337 0.0 0.0 0.00 0.00 0.00 94 1029.4
20210922043446 48 337 0.0 0.0 0.00 0.00 0.00 94 1029.4
20210922042947 48 337 0.0 0.0 0.00 0.00 0.00 93 1029.4
20210922042446 48 337 0.0 0.0 0.00 0.00 0.00 93 1029.3
20210922041948 48 337 0.0 0.0 0.00 0.00 0.00 93 1029.4
20210922041447 48 337 0.0 0.0 0.00 0.00 0.00 93 1029.3
20210922040947 48 337 0.0 0.0 0.00 0.00 0.00 93 1029.3
20210922040446 48 337 0.0 0.0 0.00 0.00 0.00 93 1029.4
20210922035946 48 337 0.0 0.0 0.00 0.00 0.00 93 1029.3
20210922034947 49 337 0.0 0.0 0.00 0.00 0.00 93 1029.4
20210922033947 49 337 0.0 0.0 0.00 0.00 0.00 93 1029.5
20210922033446 49 337 0.0 0.0 0.00 0.00 0.00 93 1029.5
20210922032946 49 337 0.0 0.0 0.00 0.00 0.00 93 1029.5
20210922032446 49 337 0.0 0.0 0.00 0.00 0.00 93 1029.6
20210922031947 49 337 0.0 0.0 0.00 0.00 0.00 93 1029.6
20210922030947 49 337 0.0 0.0 0.00 0.00 0.00 93 1029.7
20210922025947 49 337 0.0 0.0 0.00 0.00 0.00 93 1029.7
20210922024947 49 337 0.0 0.0 0.00 0.00 0.00 93 1029.7
20210922024446 49 337 0.0 0.0 0.00 0.00 0.00 93 1029.7
20210922023947 49 337 0.0 0.0 0.00 0.00 0.00 93 1029.7
20210922022948 49 342 0.0 0.0 0.00 0.00 0.00 93 1029.8
20210922022446 50 342 0.0 0.0 0.00 0.00 0.00 93 1029.8
20210922021947 50 342 0.0 0.0 0.00 0.00 0.00 93 1029.9
20210922021446 50 342 0.0 0.0 0.00 0.00 0.00 93 1029.9
20210922020948 50 342 0.0 0.0 0.00 0.00 0.00 93 1030.0
20210922020446 50 342 0.0 0.0 0.00 0.00 0.00 93 1030.1
20210922015946 50 342 0.0 0.0 0.00 0.00 0.00 93 1030.2
20210922015446 50 342 0.0 0.0 0.00 0.00 0.00 93 1030.3
20210922014946 50 342 0.0 0.0 0.00 0.00 0.00 92 1030.3
20210922014446 50 342 0.0 0.0 0.00 0.00 0.00 92 1030.3
20210922013948 50 342 0.0 0.0 0.00 0.00 0.00 92 1030.3
20210922013446 50 342 0.0 0.0 0.00 0.00 0.00 92 1030.3
20210922012446 50 342 0.0 0.0 0.00 0.00 0.00 92 1030.3
20210922011446 51 342 0.0 0.0 0.00 0.00 0.00 92 1030.3
20210922010947 51 342 0.0 0.0 0.00 0.00 0.00 92 1030.3
20210922010447 51 342 0.0 0.0 0.00 0.00 0.00 92 1030.3
20210922005946 51 342 0.0 0.0 0.00 0.00 0.00 92 1030.4
20210922005447 51 342 0.0 0.0 0.00 0.00 0.00 92 1030.5
20210922004947 51 342 0.0 0.0 0.00 0.00 0.00 92 1030.5
20210922004446 51 342 0.0 0.0 0.00 0.00 0.00 92 1030.4
20210922003947 51 342 0.0 0.0 0.00 0.00 0.00 92 1030.5
20210922003446 51 342 0.0 0.0 0.00 0.00 0.00 92 1030.6
20210922002947 51 342 0.0 0.0 0.00 0.00 0.00 92 1030.6
20210922002445 52 342 0.0 0.0 0.00 0.00 0.00 92 1030.6
20210922001947 52 342 0.0 0.0 0.00 0.00 0.00 92 1030.7
20210922001446 52 342 0.0 0.0 0.00 0.00 0.00 91 1030.6
20210922000947 52 342 0.0 0.0 0.00 0.00 0.00 91 1030.7
20210921235946 52 342 0.0 0.0 0.00 0.00 0.00 91 1030.8
20210921235446 52 342 0.0 0.0 0.00 0.00 0.00 91 1030.8
20210921234947 52 342 0.0 0.0 0.00 0.00 0.00 91 1030.9
20210921234445 52 342 0.0 0.0 0.00 0.00 0.00 91 1030.9
20210921233947 52 342 0.0 0.0 0.00 0.00 0.00 91 1031.0
20210921233446 52 342 0.0 0.0 0.00 0.00 0.00 91 1031.0
20210921232947 53 342 0.0 0.0 0.00 0.00 0.00 90 1031.1
20210921232445 53 342 0.0 0.0 0.00 0.00 0.00 90 1031.2
20210921231947 53 342 0.0 0.0 0.00 0.00 0.00 90 1031.2
20210921231445 53 342 0.0 0.0 0.00 0.00 0.00 90 1031.1
20210921230947 53 342 0.0 0.0 0.00 0.00 0.00 90 1031.2
20210921230446 53 342 0.0 0.0 0.00 0.00 0.00 90 1031.1
20210921225947 53 342 0.0 0.0 0.00 0.00 0.00 90 1031.1
20210921224947 54 342 0.0 0.0 0.00 0.00 0.00 89 1031.0
20210921224445 54 342 0.0 0.0 0.00 0.00 0.00 89 1031.0
20210921223447 54 342 0.0 0.0 0.00 0.00 0.00 89 1031.0
20210921222447 54 342 0.0 0.0 0.00 0.00 0.00 88 1031.0
20210921221947 54 342 0.0 0.0 0.00 0.00 0.00 88 1031.0
20210921220947 55 342 0.0 0.0 0.00 0.00 0.00 88 1031.1
20210921220446 55 342 0.0 0.0 0.00 0.00 0.00 87 1031.0
20210921215945 55 342 0.0 0.0 0.00 0.00 0.00 87 1031.0
20210921215446 55 342 0.0 0.0 0.00 0.00 0.00 87 1031.1
20210921214949 56 342 0.0 0.0 0.00 0.00 0.00 87 1031.1
20210921214445 56 342 0.0 0.0 0.00 0.00 0.00 87 1031.1
20210921213947 56 342 0.0 0.0 0.00 0.00 0.00 87 1031.1
20210921213446 56 342 0.0 0.0 0.00 0.00 0.00 86 1031.2
20210921211947 57 342 0.0 0.0 0.00 0.00 0.00 86 1031.1
20210921211445 57 342 0.0 0.0 0.00 0.00 0.00 86 1031.1
20210921210947 58 342 0.0 0.0 0.00 0.00 0.00 86 1031.0
20210921210446 58 342 0.0 0.0 0.00 0.00 0.00 86 1031.0
20210921205948 58 342 0.0 0.0 0.00 0.00 0.00 86 1031.1
20210921205445 59 342 0.0 0.0 0.00 0.00 0.00 86 1031.1
20210921204946 59 342 0.0 0.0 0.00 0.00 0.00 86 1031.0
20210921204446 59 342 0.0 0.0 0.00 0.00 0.00 86 1031.0
20210921203946 59 342 0.0 0.0 0.00 0.00 0.00 86 1030.9
20210921203446 59 342 0.0 0.0 0.00 0.00 0.00 86 1030.9
20210921202947 59 342 0.0 0.0 0.00 0.00 0.00 85 1030.9
20210921202446 59 342 0.0 0.0 0.00 0.00 0.00 85 1031.0
20210921201947 59 342 0.0 0.0 0.00 0.00 0.00 85 1031.0
20210921201449 60 342 0.0 0.0 0.00 0.00 0.00 85 1030.9
20210921200947 60 342 0.0 0.0 0.00 0.00 0.00 85 1031.0
20210921195949 60 345 0.0 0.0 0.00 0.00 0.00 84 1031.0
20210921195446 60 346 0.0 0.0 0.00 0.00 0.00 83 1030.9
20210921194446 60 346 0.0 0.0 0.00 0.00 0.00 81 1030.9
20210921193947 60 346 0.0 0.0 0.00 0.00 0.00 80 1030.9
20210921193446 60 346 0.0 0.0 0.00 0.00 0.00 79 1030.9
20210921192947 60 346 0.0 0.0 0.00 0.00 0.00 79 1030.9
20210921191947 61 346 0.0 0.0 0.00 0.00 0.00 77 1030.9
20210921191501 61 346 0.0 0.0 0.00 0.00 0.00 76 1030.9
20210921190948 61 346 0.0 0.0 0.00 0.00 0.00 76 1030.9
20210921190447 61 346 0.0 0.0 0.00 0.00 0.00 76 1030.9
20210921185445 62 346 0.0 0.0 0.00 0.00 0.00 74 1030.7
20210921184445 63 346 0.0 0.0 0.00 0.00 0.00 73 1030.7
20210921183446 63 346 0.0 0.0 0.00 0.00 0.00 73 1030.5
20210921182949 63 346 0.0 0.0 0.00 0.00 0.00 73 1030.4
20210921181947 64 346 0.0 0.0 0.00 0.00 0.00 72 1030.4
20210921181445 64 355 0.0 0.0 0.00 0.00 0.00 72 1030.3
20210921180446 64 345 0.0 1.0 0.00 0.00 0.00 71 1030.3
20210921174446 65 312 0.0 1.0 0.00 0.00 0.00 70 1030.3
20210921173947 66 311 0.0 0.0 0.00 0.00 0.00 70 1030.3
20210921173447 66 311 0.0 3.0 0.00 0.00 0.00 70 1030.2
20210921172949 66 327 0.0 3.0 0.00 0.00 0.00 69 1030.3
20210921171947 67 343 1.0 3.0 0.00 0.00 0.00 69 1030.3
20210921171445 67 336 0.0 3.0 0.00 0.00 0.00 69 1030.2
20210921170947 67 349 0.0 3.0 0.00 0.00 0.00 68 1030.2
20210921165948 68 355 0.0 3.0 0.00 0.00 0.00 66 1030.3
20210921163947 69 2 0.0 5.0 0.00 0.00 0.00 63 1030.2
20210921162950 69 340 3.0 3.0 0.00 0.00 0.00 61 1030.3
20210921161947 69 326 1.0 3.0 0.00 0.00 0.00 61 1030.3
20210921160947 69 266 0.0 5.0 0.00 0.00 0.00 61 1030.4